Time,TemperatureF,DewpointF,PressureIn,WindDirection,WindDirectionDegrees,WindSpeedMPH,WindSpeedGustMPH,Humidity,HourlyPrecipIn,Conditions,Clouds,dailyrainin,SoftwareType,DateUTC
2013-10-20 00:00:00,55.4,53.1,30.06,NNW,345,4.0,9.0,92,0.00,,,0.36,Wunderground v.1.15,2013-10-20 05:00:00,
2013-10-20 00:05:00,55.4,53.1,30.06,NNW,334,4.0,9.0,92,0.00,,,0.00,Wunderground v.1.15,2013-10-20 05:05:00,
2013-10-20 00:15:00,55.2,52.9,30.06,North,6,4.0,9.0,92,0.00,,,0.00,Wunderground v.1.15,2013-10-20 05:15:00,
2013-10-20 00:20:00,55.1,52.8,30.06,NNE,21,4.0,9.0,92,0.00,,,0.00,Wunderground v.1.15,2013-10-20 05:20:00,
2013-10-20 00:30:00,54.9,52.9,30.06,NNW,342,3.0,3.0,93,0.00,,,0.00,Wunderground v.1.15,2013-10-20 05:30:00,
2013-10-20 00:35:00,54.8,52.8,30.05,North,8,3.0,9.0,93,0.00,,,0.00,Wunderground v.1.15,2013-10-20 05:35:00,
2013-10-20 00:40:00,54.7,52.7,30.05,North,355,2.0,9.0,93,0.00,,,0.00,Wunderground v.1.15,2013-10-20 05:40:00,
2013-10-20 00:45:00,54.6,52.6,30.05,NNW,338,2.0,9.0,93,0.00,,,0.00,Wunderground v.1.15,2013-10-20 05:45:00,
2013-10-20 00:50:00,54.5,52.5,30.05,North,8,2.0,2.0,93,0.00,,,0.00,Wunderground v.1.15,2013-10-20 05:50:00,
2013-10-20 01:00:00,54.3,52.3,30.05,NNE,22,2.0,2.0,93,0.00,,,0.00,Wunderground v.1.15,2013-10-20 06:00:00,
2013-10-20 01:05:00,54.3,52.3,30.05,NNW,333,2.0,9.0,93,0.00,,,0.00,Wunderground v.1.15,2013-10-20 06:05:00,
2013-10-20 01:10:00,54.3,52.3,30.05,North,349,2.0,9.0,93,0.00,,,0.00,Wunderground v.1.15,2013-10-20 06:10:00,
2013-10-20 01:15:00,54.4,52.4,30.05,NE,44,3.0,9.0,93,0.00,,,0.00,Wunderground v.1.15,2013-10-20 06:15:00,
2013-10-20 01:20:00,54.3,52.3,30.05,NNE,23,3.0,3.0,93,0.00,,,0.00,Wunderground v.1.15,2013-10-20 06:20:00,
2013-10-20 01:25:00,54.3,52.3,30.05,North,356,3.0,4.0,93,0.00,,,0.00,Wunderground v.1.15,2013-10-20 06:25:00,
2013-10-20 01:35:00,54.1,52.1,30.05,NNE,27,3.0,9.0,93,0.00,,,0.00,Wunderground v.1.15,2013-10-20 06:35:00,
2013-10-20 01:40:00,54.0,52.0,30.05,NE,55,2.0,9.0,93,0.00,,,0.00,Wunderground v.1.15,2013-10-20 06:40:00,
2013-10-20 01:45:00,53.9,52.2,30.05,NE,46,2.0,9.0,94,0.00,,,0.00,Wunderground v.1.15,2013-10-20 06:45:00,
2013-10-20 01:50:00,53.8,52.1,30.05,NNE,20,3.0,3.0,94,0.00,,,0.00,Wunderground v.1.15,2013-10-20 06:50:00,
2013-10-20 01:55:00,53.8,52.1,30.05,NNE,18,3.0,9.0,94,0.00,,,0.00,Wunderground v.1.15,2013-10-20 06:55:00,
2013-10-20 02:05:00,53.6,51.9,30.05,NE,41,3.0,9.0,94,0.00,,,0.00,Wunderground v.1.15,2013-10-20 07:05:00,
2013-10-20 02:10:00,53.6,51.9,30.05,NE,39,3.0,3.0,94,0.00,,,0.00,Wunderground v.1.15,2013-10-20 07:10:00,
2013-10-20 02:15:00,53.6,51.9,30.05,NE,35,3.0,9.0,94,0.00,,,0.00,Wunderground v.1.15,2013-10-20 07:15:00,
2013-10-20 02:20:00,53.6,51.9,30.05,ENE,60,3.0,3.0,94,0.00,,,0.00,Wunderground v.1.15,2013-10-20 07:20:00,
2013-10-20 02:25:00,53.5,51.8,30.05,NNE,15,2.0,9.0,94,0.00,,,0.00,Wunderground v.1.15,2013-10-20 07:25:00,
2013-10-20 02:30:00,53.4,52.0,30.05,NE,44,2.0,9.0,95,0.00,,,0.00,Wunderground v.1.15,2013-10-20 07:30:00,
2013-10-20 02:40:00,53.2,51.8,30.05,NNW,342,2.0,2.0,95,0.00,,,0.00,Wunderground v.1.15,2013-10-20 07:40:00,
2013-10-20 02:45:00,53.2,51.8,30.05,East,86,2.0,9.0,95,0.00,,,0.00,Wunderground v.1.15,2013-10-20 07:45:00,
2013-10-20 02:50:00,53.2,51.8,30.05,NE,44,1.0,9.0,95,0.00,,,0.00,Wunderground v.1.15,2013-10-20 07:50:00,
2013-10-20 02:55:00,53.1,51.7,30.05,ENE,66,1.0,9.0,95,0.00,,,0.00,Wunderground v.1.15,2013-10-20 07:55:00,
2013-10-20 03:00:00,53.1,51.7,30.05,NE,50,1.0,1.0,95,0.00,,,0.00,Wunderground v.1.15,2013-10-20 08:00:00,
2013-10-20 03:09:00,52.9,51.5,30.04,ENE,59,2.0,9.0,95,0.00,,,0.00,Wunderground v.1.15,2013-10-20 08:09:00,
2013-10-20 03:14:00,52.8,51.7,30.04,NNE,30,2.0,9.0,96,0.00,,,0.00,Wunderground v.1.15,2013-10-20 08:14:00,
2013-10-20 03:19:00,52.8,51.7,30.04,ENE,63,2.0,9.0,96,0.00,,,0.00,Wunderground v.1.15,2013-10-20 08:19:00,
2013-10-20 03:24:00,52.7,51.6,30.05,ENE,66,1.0,9.0,96,0.00,,,0.00,Wunderground v.1.15,2013-10-20 08:24:00,
2013-10-20 03:29:00,52.6,51.5,30.04,North,10,1.0,1.0,96,0.00,,,0.00,Wunderground v.1.15,2013-10-20 08:29:00,
2013-10-20 03:34:00,52.5,51.4,30.05,North,354,1.0,9.0,96,0.00,,,0.00,Wunderground v.1.15,2013-10-20 08:34:00,
2013-10-20 03:40:00,52.4,51.3,30.05,NE,39,1.0,9.0,96,0.00,,,0.00,Wunderground v.1.15,2013-10-20 08:40:00,
2013-10-20 03:45:00,52.3,51.2,30.05,NNE,14,1.0,9.0,96,0.00,,,0.00,Wunderground v.1.15,2013-10-20 08:45:00,
2013-10-20 03:50:00,52.1,51.0,30.05,NNE,25,1.0,1.0,96,0.00,,,0.00,Wunderground v.1.15,2013-10-20 08:50:00,
2013-10-20 03:55:00,52.0,50.9,30.05,NNE,20,1.0,9.0,96,0.00,,,0.00,Wunderground v.1.15,2013-10-20 08:55:00,
2013-10-20 04:00:00,52.0,51.2,30.05,NE,41,1.0,9.0,97,0.00,,,0.00,Wunderground v.1.15,2013-10-20 09:00:00,
2013-10-20 04:05:00,52.0,51.2,30.05,North,359,2.0,9.0,97,0.00,,,0.00,Wunderground v.1.15,2013-10-20 09:05:00,
2013-10-20 04:15:00,52.0,51.2,30.05,NNE,32,1.0,9.0,97,0.00,,,0.00,Wunderground v.1.15,2013-10-20 09:15:00,
2013-10-20 04:20:00,51.9,51.1,30.05,NE,34,1.0,1.0,97,0.00,,,0.00,Wunderground v.1.15,2013-10-20 09:20:00,
2013-10-20 04:25:00,51.8,51.0,30.05,NE,50,0.0,9.0,97,0.00,,,0.00,Wunderground v.1.15,2013-10-20 09:25:00,
2013-10-20 04:30:00,51.7,50.9,30.05,NE,49,0.0,9.0,97,0.00,,,0.00,Wunderground v.1.15,2013-10-20 09:30:00,
2013-10-20 04:35:00,51.7,50.9,30.05,NNE,12,0.0,9.0,97,0.00,,,0.00,Wunderground v.1.15,2013-10-20 09:35:00,
2013-10-20 04:45:00,51.6,50.8,30.05,ENE,78,0.0,9.0,97,0.00,,,0.00,Wunderground v.1.15,2013-10-20 09:45:00,
2013-10-20 04:50:00,51.6,50.8,30.05,ENE,74,0.0,9.0,97,0.00,,,0.00,Wunderground v.1.15,2013-10-20 09:50:00,
2013-10-20 04:55:00,51.6,50.8,30.05,ENE,78,1.0,9.0,97,0.00,,,0.00,Wunderground v.1.15,2013-10-20 09:55:00,
2013-10-20 05:00:00,51.6,50.8,30.05,ENE,63,1.0,9.0,97,0.00,,,0.00,Wunderground v.1.15,2013-10-20 10:00:00,
2013-10-20 05:05:00,51.7,50.9,30.05,ENE,58,1.0,9.0,97,0.00,,,0.00,Wunderground v.1.15,2013-10-20 10:05:00,
2013-10-20 05:10:00,51.7,50.6,30.06,ENE,75,2.0,9.0,96,0.00,,,0.00,Wunderground v.1.15,2013-10-20 10:10:00,
2013-10-20 05:20:00,51.7,50.6,30.06,East,87,1.0,1.0,96,0.00,,,0.00,Wunderground v.1.15,2013-10-20 10:20:00,
2013-10-20 05:25:00,51.7,50.6,30.05,ENE,58,1.0,9.0,96,0.00,,,0.00,Wunderground v.1.15,2013-10-20 10:25:00,
2013-10-20 05:30:00,51.6,50.5,30.05,ENE,58,1.0,1.0,96,0.00,,,0.00,Wunderground v.1.15,2013-10-20 10:30:00,
2013-10-20 05:35:00,51.6,50.5,30.06,NE,51,1.0,9.0,96,0.00,,,0.00,Wunderground v.1.15,2013-10-20 10:35:00,
2013-10-20 05:40:00,51.5,50.4,30.06,East,91,1.0,1.0,96,0.00,,,0.00,Wunderground v.1.15,2013-10-20 10:40:00,
2013-10-20 05:50:00,51.3,50.2,30.06,ENE,73,1.0,9.0,96,0.00,,,0.00,Wunderground v.1.15,2013-10-20 10:50:00,
2013-10-20 05:55:00,51.2,50.1,30.06,NE,41,1.0,9.0,96,0.00,,,0.00,Wunderground v.1.15,2013-10-20 10:55:00,
2013-10-20 06:00:00,51.2,50.1,30.06,ENE,76,1.0,9.0,96,0.00,,,0.00,Wunderground v.1.15,2013-10-20 11:00:00,
2013-10-20 06:05:00,51.1,50.0,30.06,ENE,77,1.0,9.0,96,0.00,,,0.00,Wunderground v.1.15,2013-10-20 11:05:00,
2013-10-20 06:10:00,51.0,49.9,30.06,NE,55,1.0,9.0,96,0.00,,,0.00,Wunderground v.1.15,2013-10-20 11:10:00,
2013-10-20 06:15:00,50.9,49.8,30.06,ENE,72,1.0,9.0,96,0.00,,,0.00,Wunderground v.1.15,2013-10-20 11:15:00,
2013-10-20 06:24:00,50.8,50.0,30.06,East,82,1.0,9.0,97,0.00,,,0.00,Wunderground v.1.15,2013-10-20 11:24:00,
2013-10-20 06:29:00,50.8,49.7,30.06,East,98,1.0,1.0,96,0.00,,,0.00,Wunderground v.1.15,2013-10-20 11:29:00,
2013-10-20 06:34:00,50.7,49.6,30.06,East,79,1.0,9.0,96,0.00,,,0.00,Wunderground v.1.15,2013-10-20 11:34:00,
2013-10-20 06:39:00,50.6,49.5,30.07,NNE,28,1.0,1.0,96,0.00,,,0.00,Wunderground v.1.15,2013-10-20 11:39:00,
2013-10-20 06:45:00,50.6,49.8,30.07,NE,50,1.0,9.0,97,0.00,,,0.00,Wunderground v.1.15,2013-10-20 11:45:00,
2013-10-20 06:50:00,50.6,49.8,30.07,NE,50,1.0,1.0,97,0.00,,,0.00,Wunderground v.1.15,2013-10-20 11:50:00,
2013-10-20 06:55:00,50.5,49.7,30.07,East,85,0.0,9.0,97,0.00,,,0.00,Wunderground v.1.15,2013-10-20 11:55:00,
2013-10-20 07:00:00,50.4,49.6,30.07,East,89,0.0,9.0,97,0.00,,,0.00,Wunderground v.1.15,2013-10-20 12:00:00,
2013-10-20 07:05:00,50.2,49.4,30.07,East,89,0.0,9.0,97,0.00,,,0.00,Wunderground v.1.15,2013-10-20 12:05:00,
2013-10-20 07:10:00,50.1,49.3,30.07,East,89,0.0,9.0,97,0.00,,,0.00,Wunderground v.1.15,2013-10-20 12:10:00,
2013-10-20 07:19:00,49.9,49.1,30.07,East,89,0.0,9.0,97,0.00,,,0.00,Wunderground v.1.15,2013-10-20 12:19:00,
2013-10-20 07:25:00,49.9,49.1,30.07,East,89,0.0,9.0,97,0.00,,,0.00,Wunderground v.1.15,2013-10-20 12:25:00,
2013-10-20 07:30:00,49.8,49.0,30.07,East,89,0.0,9.0,97,0.00,,,0.00,Wunderground v.1.15,2013-10-20 12:30:00,
2013-10-20 07:35:00,49.8,49.0,30.07,NNE,20,0.0,9.0,97,0.00,,,0.00,Wunderground v.1.15,2013-10-20 12:35:00,
2013-10-20 07:40:00,49.9,49.1,30.08,North,6,0.0,9.0,97,0.00,,,0.00,Wunderground v.1.15,2013-10-20 12:40:00,
2013-10-20 07:45:00,50.0,49.2,30.08,North,8,1.0,9.0,97,0.00,,,0.00,Wunderground v.1.15,2013-10-20 12:45:00,
2013-10-20 07:50:00,50.1,49.3,30.08,NE,34,1.0,9.0,97,0.00,,,0.00,Wunderground v.1.15,2013-10-20 12:50:00,
2013-10-20 07:55:00,50.4,49.6,30.08,North,360,0.0,9.0,97,0.00,,,0.00,Wunderground v.1.15,2013-10-20 12:55:00,
2013-10-20 08:00:00,50.8,50.0,30.08,North,354,1.0,1.0,97,0.00,,,0.00,Wunderground v.1.15,2013-10-20 13:00:00,
2013-10-20 08:05:00,51.3,50.2,30.08,NNE,18,1.0,9.0,96,0.00,,,0.00,Wunderground v.1.15,2013-10-20 13:05:00,
2013-10-20 08:10:00,51.7,50.3,30.08,NNE,30,2.0,2.0,95,0.00,,,0.00,Wunderground v.1.15,2013-10-20 13:10:00,
2013-10-20 08:15:00,52.2,50.5,30.08,NE,41,2.0,9.0,94,0.00,,,0.00,Wunderground v.1.15,2013-10-20 13:15:00,
2013-10-20 08:20:00,52.5,50.8,30.09,NNE,19,2.0,2.0,94,0.00,,,0.00,Wunderground v.1.15,2013-10-20 13:20:00,
2013-10-20 08:30:00,53.3,51.0,30.09,East,95,3.0,3.0,92,0.00,,,0.00,Wunderground v.1.15,2013-10-20 13:30:00,
2013-10-20 08:35:00,53.7,50.8,30.09,NE,45,3.0,9.0,90,0.00,,,0.00,Wunderground v.1.15,2013-10-20 13:35:00,
2013-10-20 08:40:00,54.3,51.7,30.09,NE,37,2.0,9.0,91,0.00,,,0.00,Wunderground v.1.15,2013-10-20 13:40:00,
2013-10-20 08:45:00,54.6,51.7,30.10,ENE,78,2.0,9.0,90,0.00,,,0.00,Wunderground v.1.15,2013-10-20 13:45:00,
2013-10-20 08:50:00,54.8,51.6,30.10,East,99,3.0,9.0,89,0.00,,,0.00,Wunderground v.1.15,2013-10-20 13:50:00,
2013-10-20 08:55:00,54.9,51.4,30.10,East,86,3.0,9.0,88,0.00,,,0.00,Wunderground v.1.15,2013-10-20 13:55:00,
2013-10-20 09:05:00,55.1,51.6,30.10,East,93,3.0,9.0,88,0.00,,,0.00,Wunderground v.1.15,2013-10-20 14:05:00,
2013-10-20 09:10:00,55.6,51.8,30.10,ENE,71,3.0,3.0,87,0.00,,,0.00,Wunderground v.1.15,2013-10-20 14:10:00,
2013-10-20 09:15:00,55.7,51.9,30.10,East,86,3.0,5.0,87,0.00,,,0.00,Wunderground v.1.15,2013-10-20 14:15:00,
2013-10-20 09:20:00,55.8,51.7,30.10,East,92,4.0,9.0,86,0.00,,,0.00,Wunderground v.1.15,2013-10-20 14:20:00,
2013-10-20 09:25:00,56.1,51.7,30.10,NE,52,4.0,9.0,85,0.00,,,0.00,Wunderground v.1.15,2013-10-20 14:25:00,
2013-10-20 09:35:00,56.8,52.3,30.10,ENE,57,4.0,5.0,85,0.00,,,0.00,Wunderground v.1.15,2013-10-20 14:35:00,
2013-10-20 09:40:00,57.3,52.5,30.10,East,89,4.0,4.0,84,0.00,,,0.00,Wunderground v.1.15,2013-10-20 14:40:00,
2013-10-20 09:45:00,57.5,52.7,30.10,ESE,105,4.0,6.0,84,0.00,,,0.00,Wunderground v.1.15,2013-10-20 14:45:00,
2013-10-20 09:50:00,57.6,52.5,30.10,East,94,4.0,9.0,83,0.00,,,0.00,Wunderground v.1.15,2013-10-20 14:50:00,
2013-10-20 09:55:00,57.6,52.1,30.10,East,82,4.0,9.0,82,0.00,,,0.00,Wunderground v.1.15,2013-10-20 14:55:00,
2013-10-20 10:00:00,58.1,53.0,30.10,East,82,4.0,9.0,83,0.00,,,0.00,Wunderground v.1.15,2013-10-20 15:00:00,
2013-10-20 10:10:00,58.5,52.7,30.10,East,80,3.0,3.0,81,0.00,,,0.00,Wunderground v.1.15,2013-10-20 15:10:00,
2013-10-20 10:15:00,58.7,52.9,30.10,NE,55,3.0,9.0,81,0.00,,,0.00,Wunderground v.1.15,2013-10-20 15:15:00,
2013-10-20 10:20:00,58.8,53.0,30.10,East,81,3.0,9.0,81,0.00,,,0.00,Wunderground v.1.15,2013-10-20 15:20:00,
2013-10-20 10:25:00,59.3,53.8,30.10,North,1,3.0,9.0,82,0.00,,,0.00,Wunderground v.1.15,2013-10-20 15:25:00,
2013-10-20 10:30:00,59.5,53.3,30.10,ENE,78,2.0,9.0,80,0.00,,,0.00,Wunderground v.1.15,2013-10-20 15:30:00,
2013-10-20 10:35:00,59.7,53.2,30.10,East,91,3.0,9.0,79,0.00,,,0.00,Wunderground v.1.15,2013-10-20 15:35:00,
2013-10-20 10:44:00,60.6,54.0,30.09,East,84,2.0,9.0,79,0.00,,,0.00,Wunderground v.1.15,2013-10-20 15:44:00,
2013-10-20 10:49:00,61.2,53.9,30.10,ESE,103,3.0,9.0,77,0.00,,,0.00,Wunderground v.1.15,2013-10-20 15:49:00,
2013-10-20 10:54:00,61.4,54.5,30.10,ESE,118,2.0,9.0,78,0.00,,,0.00,Wunderground v.1.15,2013-10-20 15:54:00,
2013-10-20 10:59:00,62.1,54.8,30.10,SE,135,3.0,9.0,77,0.00,,,0.00,Wunderground v.1.15,2013-10-20 15:59:00,
2013-10-20 11:04:00,62.2,54.5,30.09,East,88,3.0,9.0,76,0.00,,,0.00,Wunderground v.1.15,2013-10-20 16:04:00,
2013-10-20 11:10:00,62.7,55.4,30.10,ESE,108,3.0,9.0,77,0.00,,,0.00,Wunderground v.1.15,2013-10-20 16:10:00,
2013-10-20 11:15:00,63.5,55.4,30.09,East,80,2.0,9.0,75,0.00,,,0.00,Wunderground v.1.15,2013-10-20 16:15:00,
2013-10-20 11:20:00,63.4,54.6,30.09,NE,53,3.0,9.0,73,0.00,,,0.00,Wunderground v.1.15,2013-10-20 16:20:00,
2013-10-20 11:25:00,63.1,54.7,30.09,ENE,58,3.0,9.0,74,0.00,,,0.00,Wunderground v.1.15,2013-10-20 16:25:00,
2013-10-20 11:30:00,63.5,54.7,30.09,East,84,2.0,9.0,73,0.00,,,0.00,Wunderground v.1.15,2013-10-20 16:30:00,
2013-10-20 11:35:00,64.0,54.8,30.09,ENE,77,2.0,9.0,72,0.00,,,0.00,Wunderground v.1.15,2013-10-20 16:35:00,
2013-10-20 11:40:00,64.4,53.6,30.09,ESE,113,2.0,9.0,68,0.00,,,0.00,Wunderground v.1.15,2013-10-20 16:40:00,
2013-10-20 11:45:00,65.4,55.4,30.09,SSE,168,2.0,9.0,70,0.00,,,0.00,Wunderground v.1.15,2013-10-20 16:45:00,
2013-10-20 11:50:00,66.3,55.8,30.09,SSE,162,2.0,2.0,69,0.00,,,0.00,Wunderground v.1.15,2013-10-20 16:50:00,
2013-10-20 11:55:00,67.6,56.2,30.09,South,174,2.0,9.0,67,0.00,,,0.00,Wunderground v.1.15,2013-10-20 16:55:00,
2013-10-20 12:00:00,68.4,55.3,30.08,ESE,122,1.0,9.0,63,0.00,,,0.00,Wunderground v.1.15,2013-10-20 17:00:00,
2013-10-20 12:05:00,67.2,55.5,30.08,SSE,158,2.0,9.0,66,0.00,,,0.00,Wunderground v.1.15,2013-10-20 17:05:00,
2013-10-20 12:15:00,68.1,55.5,30.08,West,280,2.0,9.0,64,0.00,,,0.00,Wunderground v.1.15,2013-10-20 17:15:00,
2013-10-20 12:20:00,68.8,57.0,30.08,SSW,212,2.0,9.0,66,0.00,,,0.00,Wunderground v.1.15,2013-10-20 17:20:00,
2013-10-20 12:25:00,68.3,55.2,30.07,ENE,76,2.0,9.0,63,0.00,,,0.00,Wunderground v.1.15,2013-10-20 17:25:00,
2013-10-20 12:30:00,67.3,54.7,30.07,East,94,2.0,2.0,64,0.00,,,0.00,Wunderground v.1.15,2013-10-20 17:30:00,
2013-10-20 12:35:00,68.1,55.0,30.07,SW,216,1.0,9.0,63,0.00,,,0.00,Wunderground v.1.15,2013-10-20 17:35:00,
2013-10-20 12:40:00,68.9,56.6,30.07,SSE,168,1.0,9.0,65,0.00,,,0.00,Wunderground v.1.15,2013-10-20 17:40:00,
2013-10-20 12:50:00,69.1,56.0,30.06,SE,131,2.0,9.0,63,0.00,,,0.00,Wunderground v.1.15,2013-10-20 17:50:00,
2013-10-20 12:55:00,69.1,56.8,30.06,NW,308,2.0,9.0,65,0.00,,,0.00,Wunderground v.1.15,2013-10-20 17:55:00,
2013-10-20 13:00:00,69.4,57.5,30.05,West,276,2.0,2.0,66,0.00,,,0.00,Wunderground v.1.15,2013-10-20 18:00:00,
2013-10-20 13:09:00,70.1,56.9,30.05,WSW,242,1.0,1.0,63,0.00,,,0.00,Wunderground v.1.15,2013-10-20 18:09:00,
2013-10-20 13:14:00,70.8,56.2,30.05,SW,229,2.0,3.0,60,0.00,,,0.00,Wunderground v.1.15,2013-10-20 18:14:00,
2013-10-20 13:20:00,71.3,57.2,30.04,NW,313,2.0,9.0,61,0.00,,,0.00,Wunderground v.1.15,2013-10-20 18:20:00,
2013-10-20 13:25:00,71.5,56.4,30.04,NW,311,3.0,9.0,59,0.00,,,0.00,Wunderground v.1.15,2013-10-20 18:25:00,
2013-10-20 13:30:00,71.1,55.6,30.03,NW,322,3.0,3.0,58,0.00,,,0.00,Wunderground v.1.15,2013-10-20 18:30:00,
2013-10-20 13:35:00,71.3,56.2,30.03,SSW,199,2.0,9.0,59,0.00,,,0.00,Wunderground v.1.15,2013-10-20 18:35:00,
2013-10-20 13:40:00,71.9,56.8,30.03,NW,314,2.0,9.0,59,0.00,,,0.00,Wunderground v.1.15,2013-10-20 18:40:00,
2013-10-20 13:45:00,71.1,55.6,30.03,NNW,335,2.0,9.0,58,0.00,,,0.00,Wunderground v.1.15,2013-10-20 18:45:00,
2013-10-20 13:55:00,70.7,55.2,30.02,ENE,67,2.0,9.0,58,0.00,,,0.00,Wunderground v.1.15,2013-10-20 18:55:00,
2013-10-20 14:00:00,71.2,56.6,30.01,NNW,344,2.0,9.0,60,0.00,,,0.00,Wunderground v.1.15,2013-10-20 19:00:00,
2013-10-20 14:05:00,71.6,55.6,30.01,SSE,160,2.0,9.0,57,0.00,,,0.00,Wunderground v.1.15,2013-10-20 19:05:00,
2013-10-20 14:10:00,72.0,56.4,30.01,NW,323,1.0,9.0,58,0.00,,,0.00,Wunderground v.1.15,2013-10-20 19:10:00,
2013-10-20 14:15:00,71.6,55.1,30.01,WSW,240,1.0,9.0,56,0.00,,,0.00,Wunderground v.1.15,2013-10-20 19:15:00,
2013-10-20 14:25:00,72.9,55.8,30.00,SE,134,2.0,9.0,55,0.00,,,0.00,Wunderground v.1.15,2013-10-20 19:25:00,
2013-10-20 14:30:00,73.4,56.2,30.00,NNW,330,2.0,9.0,55,0.00,,,0.00,Wunderground v.1.15,2013-10-20 19:30:00,
2013-10-20 14:35:00,72.9,56.3,30.00,NW,312,2.0,9.0,56,0.00,,,0.00,Wunderground v.1.15,2013-10-20 19:35:00,
2013-10-20 14:40:00,72.5,54.9,30.00,ENE,60,3.0,3.0,54,0.00,,,0.00,Wunderground v.1.15,2013-10-20 19:40:00,
2013-10-20 14:45:00,72.3,55.2,30.00,NNW,328,2.0,9.0,55,0.00,,,0.00,Wunderground v.1.15,2013-10-20 19:45:00,
2013-10-20 14:50:00,72.9,55.3,30.00,WSW,255,2.0,2.0,54,0.00,,,0.00,Wunderground v.1.15,2013-10-20 19:50:00,
2013-10-20 15:00:00,73.3,54.6,30.00,SW,219,2.0,2.0,52,0.00,,,0.00,Wunderground v.1.15,2013-10-20 20:00:00,
2013-10-20 15:05:00,73.9,56.2,30.00,NNW,327,1.0,9.0,54,0.00,,,0.00,Wunderground v.1.15,2013-10-20 20:05:00,
2013-10-20 15:10:00,73.8,55.1,29.99,NNE,28,2.0,9.0,52,0.00,,,0.00,Wunderground v.1.15,2013-10-20 20:10:00,
2013-10-20 15:15:00,72.8,54.1,29.99,NE,41,2.0,9.0,52,0.00,,,0.00,Wunderground v.1.15,2013-10-20 20:15:00,
2013-10-20 15:20:00,72.7,53.5,30.00,NW,321,2.0,2.0,51,0.00,,,0.00,Wunderground v.1.15,2013-10-20 20:20:00,
2013-10-20 15:30:00,73.5,53.7,29.99,East,87,2.0,2.0,50,0.00,,,0.00,Wunderground v.1.15,2013-10-20 20:30:00,
2013-10-20 15:35:00,73.3,53.5,29.99,North,357,2.0,9.0,50,0.00,,,0.00,Wunderground v.1.15,2013-10-20 20:35:00,
2013-10-20 15:40:00,73.2,53.4,29.99,NNW,335,2.0,9.0,50,0.00,,,0.00,Wunderground v.1.15,2013-10-20 20:40:00,
2013-10-20 15:45:00,73.4,53.1,29.99,SW,221,2.0,9.0,49,0.00,,,0.00,Wunderground v.1.15,2013-10-20 20:45:00,
2013-10-20 15:50:00,73.5,53.2,29.99,NW,326,1.0,1.0,49,0.00,,,0.00,Wunderground v.1.15,2013-10-20 20:50:00,
2013-10-20 15:55:00,74.7,54.3,29.99,South,179,1.0,9.0,49,0.00,,,0.00,Wunderground v.1.15,2013-10-20 20:55:00,
2013-10-20 16:05:00,75.0,53.4,29.99,NNE,20,1.0,9.0,47,0.00,,,0.00,Wunderground v.1.15,2013-10-20 21:05:00,
2013-10-20 16:10:00,74.5,52.9,29.99,WSW,248,1.0,9.0,47,0.00,,,0.00,Wunderground v.1.15,2013-10-20 21:10:00,
2013-10-20 16:15:00,74.7,54.3,29.99,ESE,120,2.0,9.0,49,0.00,,,0.00,Wunderground v.1.15,2013-10-20 21:15:00,
2013-10-20 16:20:00,74.9,53.9,29.99,SSW,213,2.0,2.0,48,0.00,,,0.00,Wunderground v.1.15,2013-10-20 21:20:00,
2013-10-20 16:25:00,74.5,52.9,29.99,SE,125,2.0,9.0,47,0.00,,,0.00,Wunderground v.1.15,2013-10-20 21:25:00,
2013-10-20 16:34:00,74.2,52.7,29.99,SSE,162,1.0,9.0,47,0.00,,,0.00,Wunderground v.1.15,2013-10-20 21:34:00,
2013-10-20 16:39:00,74.2,52.1,29.99,SSE,163,1.0,9.0,46,0.00,,,0.00,Wunderground v.1.15,2013-10-20 21:39:00,
2013-10-20 16:44:00,74.0,53.1,29.98,SSE,158,1.0,9.0,48,0.00,,,0.00,Wunderground v.1.15,2013-10-20 21:44:00,
2013-10-20 16:49:00,74.5,54.1,29.98,South,176,1.0,1.0,49,0.00,,,0.00,Wunderground v.1.15,2013-10-20 21:49:00,
2013-10-20 16:54:00,74.3,53.9,29.98,SE,124,1.0,9.0,49,0.00,,,0.00,Wunderground v.1.15,2013-10-20 21:54:00,
2013-10-20 16:59:00,74.2,52.7,29.98,SSE,161,1.0,9.0,47,0.00,,,0.00,Wunderground v.1.15,2013-10-20 21:59:00,
2013-10-20 17:05:00,74.8,52.6,29.98,SSE,160,1.0,9.0,46,0.00,,,0.00,Wunderground v.1.15,2013-10-20 22:05:00,
2013-10-20 17:10:00,74.8,53.2,29.98,East,93,1.0,9.0,47,0.00,,,0.00,Wunderground v.1.15,2013-10-20 22:10:00,
2013-10-20 17:19:00,73.1,52.8,29.98,East,88,2.0,2.0,49,0.00,,,0.00,Wunderground v.1.15,2013-10-20 22:19:00,
2013-10-20 17:24:00,72.7,53.5,29.98,East,90,2.0,9.0,51,0.00,,,0.00,Wunderground v.1.15,2013-10-20 22:24:00,
2013-10-20 17:29:00,72.4,54.8,29.98,East,101,1.0,9.0,54,0.00,,,0.00,Wunderground v.1.15,2013-10-20 22:29:00,
2013-10-20 17:35:00,72.3,55.7,29.98,ESE,107,1.0,9.0,56,0.00,,,0.00,Wunderground v.1.15,2013-10-20 22:35:00,
2013-10-20 17:40:00,72.5,54.4,29.98,ESE,107,1.0,1.0,53,0.00,,,0.00,Wunderground v.1.15,2013-10-20 22:40:00,
2013-10-20 17:45:00,72.6,55.0,29.98,East,98,0.0,9.0,54,0.00,,,0.00,Wunderground v.1.15,2013-10-20 22:45:00,
2013-10-20 17:50:00,72.4,55.3,29.98,East,98,0.0,9.0,55,0.00,,,0.00,Wunderground v.1.15,2013-10-20 22:50:00,
2013-10-20 17:59:00,71.9,55.3,29.98,East,98,0.0,9.0,56,0.00,,,0.00,Wunderground v.1.15,2013-10-20 22:59:00,
2013-10-20 18:04:00,71.4,56.3,29.98,East,98,1.0,9.0,59,0.00,,,0.00,Wunderground v.1.15,2013-10-20 23:04:00,
2013-10-20 18:10:00,70.8,57.1,29.98,East,98,1.0,1.0,62,0.00,,,0.00,Wunderground v.1.15,2013-10-20 23:10:00,
2013-10-20 18:15:00,70.4,55.8,29.98,East,98,0.0,9.0,60,0.00,,,0.00,Wunderground v.1.15,2013-10-20 23:15:00,
2013-10-20 18:20:00,70.0,55.5,29.98,East,98,0.0,9.0,60,0.00,,,0.00,Wunderground v.1.15,2013-10-20 23:20:00,
2013-10-20 18:25:00,69.4,54.9,29.98,East,98,1.0,9.0,60,0.00,,,0.00,Wunderground v.1.15,2013-10-20 23:25:00,
2013-10-20 18:30:00,68.8,57.0,29.98,East,98,1.0,1.0,66,0.00,,,0.00,Wunderground v.1.15,2013-10-20 23:30:00,
2013-10-20 18:35:00,68.1,57.5,29.98,East,98,0.0,9.0,69,0.00,,,0.00,Wunderground v.1.15,2013-10-20 23:35:00,
2013-10-20 18:45:00,65.8,58.4,29.98,SSE,155,0.0,9.0,77,0.00,,,0.00,Wunderground v.1.15,2013-10-20 23:45:00,
2013-10-20 18:50:00,64.7,58.7,29.98,SSE,151,0.0,9.0,81,0.00,,,0.00,Wunderground v.1.15,2013-10-20 23:50:00,
2013-10-20 18:55:00,64.0,58.7,29.98,SSE,151,0.0,9.0,83,0.00,,,0.00,Wunderground v.1.15,2013-10-20 23:55:00,
2013-10-20 19:00:00,63.7,58.1,29.98,SSE,151,0.0,9.0,82,0.00,,,0.00,Wunderground v.1.15,2013-10-21 00:00:00,
2013-10-20 19:05:00,63.5,57.9,29.98,SSE,151,0.0,9.0,82,0.00,,,0.00,Wunderground v.1.15,2013-10-21 00:05:00,
2013-10-20 19:15:00,63.0,58.7,29.98,SSE,151,0.0,9.0,86,0.00,,,0.00,Wunderground v.1.15,2013-10-21 00:15:00,
2013-10-20 19:20:00,62.5,58.9,29.98,SSE,151,0.0,9.0,88,0.00,,,0.00,Wunderground v.1.15,2013-10-21 00:20:00,
2013-10-20 19:25:00,62.2,58.6,29.98,SSE,151,0.0,9.0,88,0.00,,,0.00,Wunderground v.1.15,2013-10-21 00:25:00,
2013-10-20 19:30:00,61.7,57.1,29.98,SSE,151,0.0,9.0,85,0.00,,,0.00,Wunderground v.1.15,2013-10-21 00:30:00,
2013-10-20 19:35:00,61.3,56.8,29.98,SSE,151,0.0,9.0,85,0.00,,,0.00,Wunderground v.1.15,2013-10-21 00:35:00,
2013-10-20 19:40:00,61.1,56.9,29.98,SSE,151,0.0,9.0,86,0.00,,,0.00,Wunderground v.1.15,2013-10-21 00:40:00,
2013-10-20 19:50:00,60.5,56.9,29.99,East,84,0.0,9.0,88,0.00,,,0.00,Wunderground v.1.15,2013-10-21 00:50:00,
2013-10-20 19:55:00,60.1,56.5,29.99,East,84,0.0,9.0,88,0.00,,,0.00,Wunderground v.1.15,2013-10-21 00:55:00,
2013-10-20 20:00:00,59.9,57.0,29.99,East,84,0.0,9.0,90,0.00,,,0.00,Wunderground v.1.15,2013-10-21 01:00:00,
2013-10-20 20:05:00,59.9,57.6,29.99,East,84,0.0,9.0,92,0.00,,,0.00,Wunderground v.1.15,2013-10-21 01:05:00,
2013-10-20 20:10:00,59.6,57.3,29.99,East,84,0.0,9.0,92,0.00,,,0.00,Wunderground v.1.15,2013-10-21 01:10:00,
2013-10-20 20:20:00,58.9,56.9,29.99,East,84,0.0,9.0,93,0.00,,,0.00,Wunderground v.1.15,2013-10-21 01:20:00,
2013-10-20 20:25:00,58.7,57.0,29.99,East,84,0.0,9.0,94,0.00,,,0.00,Wunderground v.1.15,2013-10-21 01:25:00,
2013-10-20 20:30:00,58.7,57.0,29.99,East,84,0.0,9.0,94,0.00,,,0.00,Wunderground v.1.15,2013-10-21 01:30:00,
2013-10-20 20:35:00,58.6,56.6,29.99,East,84,0.0,9.0,93,0.00,,,0.00,Wunderground v.1.15,2013-10-21 01:35:00,
2013-10-20 20:40:00,58.4,56.4,29.99,East,84,0.0,9.0,93,0.00,,,0.00,Wunderground v.1.15,2013-10-21 01:40:00,
2013-10-20 20:45:00,58.7,57.3,29.99,East,84,0.0,9.0,95,0.00,,,0.00,Wunderground v.1.15,2013-10-21 01:45:00,
2013-10-20 20:55:00,58.6,57.2,29.99,East,84,0.0,9.0,95,0.00,,,0.00,Wunderground v.1.15,2013-10-21 01:55:00,
2013-10-20 21:00:00,58.6,57.5,29.99,East,84,0.0,9.0,96,0.00,,,0.00,Wunderground v.1.15,2013-10-21 02:00:00,
2013-10-20 21:05:00,58.4,57.0,29.99,East,84,0.0,9.0,95,0.00,,,0.00,Wunderground v.1.15,2013-10-21 02:05:00,
2013-10-20 21:10:00,58.3,57.2,29.99,East,84,0.0,9.0,96,0.00,,,0.00,Wunderground v.1.15,2013-10-21 02:10:00,
2013-10-20 21:15:00,58.2,57.1,29.99,East,84,0.0,9.0,96,0.00,,,0.00,Wunderground v.1.15,2013-10-21 02:15:00,
2013-10-20 21:24:00,58.2,57.1,29.99,East,84,0.0,9.0,96,0.00,,,0.00,Wunderground v.1.15,2013-10-21 02:24:00,
2013-10-20 21:29:00,58.0,56.9,30.00,East,84,0.0,9.0,96,0.00,,,0.00,Wunderground v.1.15,2013-10-21 02:29:00,
2013-10-20 21:35:00,57.9,56.8,30.00,East,84,0.0,9.0,96,0.00,,,0.00,Wunderground v.1.15,2013-10-21 02:35:00,
2013-10-20 21:40:00,57.8,57.0,29.99,East,84,0.0,9.0,97,0.00,,,0.00,Wunderground v.1.15,2013-10-21 02:40:00,
2013-10-20 21:45:00,57.7,56.9,30.00,East,84,0.0,9.0,97,0.00,,,0.00,Wunderground v.1.15,2013-10-21 02:45:00,
2013-10-20 21:50:00,57.5,56.4,30.00,East,86,0.0,9.0,96,0.00,,,0.00,Wunderground v.1.15,2013-10-21 02:50:00,
2013-10-20 21:59:00,56.9,55.8,30.00,East,86,0.0,9.0,96,0.00,,,0.00,Wunderground v.1.15,2013-10-21 02:59:00,
2013-10-20 22:04:00,56.7,55.9,30.00,East,87,0.0,9.0,97,0.00,,,0.00,Wunderground v.1.15,2013-10-21 03:04:00,
2013-10-20 22:10:00,56.8,56.0,30.00,East,89,0.0,9.0,97,0.00,,,0.00,Wunderground v.1.15,2013-10-21 03:10:00,
2013-10-20 22:15:00,56.8,56.0,30.00,East,89,0.0,9.0,97,0.00,,,0.00,Wunderground v.1.15,2013-10-21 03:15:00,
2013-10-20 22:20:00,56.9,56.3,30.00,East,89,0.0,9.0,98,0.00,,,0.00,Wunderground v.1.15,2013-10-21 03:20:00,
2013-10-20 22:25:00,57.0,56.4,30.00,East,89,0.0,9.0,98,0.00,,,0.00,Wunderground v.1.15,2013-10-21 03:25:00,
2013-10-20 22:30:00,57.1,56.5,30.00,East,89,0.0,9.0,98,0.00,,,0.00,Wunderground v.1.15,2013-10-21 03:30:00,
2013-10-20 22:35:00,56.8,56.0,30.00,East,89,0.0,9.0,97,0.00,,,0.00,Wunderground v.1.15,2013-10-21 03:35:00,
2013-10-20 22:40:00,56.8,56.2,30.00,East,89,0.0,9.0,98,0.00,,,0.00,Wunderground v.1.15,2013-10-21 03:40:00,
2013-10-20 22:45:00,57.1,56.5,30.00,East,89,0.0,9.0,98,0.00,,,0.00,Wunderground v.1.15,2013-10-21 03:45:00,
2013-10-20 22:50:00,57.0,56.4,30.00,East,89,0.0,9.0,98,0.00,,,0.00,Wunderground v.1.15,2013-10-21 03:50:00,
2013-10-20 23:00:00,56.4,55.8,30.00,East,89,0.0,9.0,98,0.00,,,0.00,Wunderground v.1.15,2013-10-21 04:00:00,
2013-10-20 23:05:00,56.2,55.6,30.00,East,87,0.0,9.0,98,0.00,,,0.00,Wunderground v.1.15,2013-10-21 04:05:00,
2013-10-20 23:10:00,56.0,55.4,30.00,East,86,0.0,9.0,98,0.00,,,0.00,Wunderground v.1.15,2013-10-21 04:10:00,
2013-10-20 23:15:00,55.8,55.2,30.00,East,86,0.0,9.0,98,0.00,,,0.00,Wunderground v.1.15,2013-10-21 04:15:00,
2013-10-20 23:20:00,56.1,55.5,30.00,SSE,149,0.0,9.0,98,0.00,,,0.00,Wunderground v.1.15,2013-10-21 04:20:00,
2013-10-20 23:25:00,56.0,55.4,30.00,SSE,149,0.0,9.0,98,0.00,,,0.00,Wunderground v.1.15,2013-10-21 04:25:00,
2013-10-20 23:35:00,55.4,54.8,30.00,SSE,148,0.0,9.0,98,0.00,,,0.00,Wunderground v.1.15,2013-10-21 04:35:00,
2013-10-20 23:40:00,55.4,54.8,30.00,SSE,148,0.0,9.0,98,0.00,,,0.00,Wunderground v.1.15,2013-10-21 04:40:00,
2013-10-20 23:45:00,55.5,54.9,30.00,SE,146,0.0,9.0,98,0.00,,,0.00,Wunderground v.1.15,2013-10-21 04:45:00,
2013-10-20 23:50:00,55.3,54.7,30.00,SE,146,0.0,9.0,98,0.00,,,0.00,Wunderground v.1.15,2013-10-21 04:50:00,
2013-10-20 23:55:00,55.0,54.4,30.00,SE,146,0.0,9.0,98,0.00,,,0.00,Wunderground v.1.15,2013-10-21 04:55:00,